TimeCST,TemperatureF,Dew PointF,Humidity,Sea Level PressureIn,VisibilityMPH,Wind Direction,Wind SpeedMPH,Gust SpeedMPH,PrecipitationIn,Events,Conditions,WindDirDegrees,DateUTC
12:53 AM,41.0,28.9,62,30.24,10.0,ENE,4.6,-,N/A,,Clear,60,2013-01-20 06:53:00
1:53 AM,39.9,28.9,65,30.25,10.0,NE,5.8,-,N/A,,Clear,50,2013-01-20 07:53:00
2:53 AM,39.0,28.0,65,30.27,10.0,NE,6.9,-,N/A,,Clear,50,2013-01-20 08:53:00
3:53 AM,37.0,27.0,67,30.27,10.0,NE,5.8,-,N/A,,Clear,50,2013-01-20 09:53:00
4:53 AM,35.1,26.1,70,30.27,10.0,NNE,4.6,-,N/A,,Clear,30,2013-01-20 10:53:00
5:53 AM,33.1,26.1,75,30.28,10.0,NNE,5.8,-,N/A,,Clear,30,2013-01-20 11:53:00
6:53 AM,32.0,26.1,79,30.29,10.0,ENE,5.8,-,N/A,,Clear,60,2013-01-20 12:53:00
7:53 AM,30.9,25.0,79,30.28,10.0,East,4.6,-,N/A,,Clear,80,2013-01-20 13:53:00
8:53 AM,36.0,21.0,55,30.28,10.0,ENE,5.8,-,N/A,,Clear,60,2013-01-20 14:53:00
9:53 AM,39.9,24.1,53,30.30,10.0,ENE,5.8,-,N/A,,Clear,60,2013-01-20 15:53:00
10:53 AM,43.0,24.1,47,30.29,10.0,ENE,6.9,-,N/A,,Clear,70,2013-01-20 16:53:00
11:53 AM,46.0,26.1,46,30.24,10.0,East,6.9,-,N/A,,Clear,100,2013-01-20 17:53:00
12:53 PM,50.0,24.1,36,30.22,10.0,East,5.8,-,N/A,,Clear,100,2013-01-20 18:53:00
1:53 PM,51.1,25.0,36,30.18,10.0,NE,6.9,-,N/A,,Clear,50,2013-01-20 19:53:00
2:53 PM,51.1,25.0,36,30.19,10.0,NNE,11.5,-,N/A,,Clear,20,2013-01-20 20:53:00
3:53 PM,48.9,23.0,36,30.19,10.0,NNE,9.2,-,N/A,,Clear,30,2013-01-20 21:53:00
4:53 PM,46.0,19.9,35,30.21,10.0,NNE,11.5,-,N/A,,Clear,20,2013-01-20 22:53:00
5:53 PM,41.0,18.0,40,30.22,10.0,NNE,8.1,-,N/A,,Clear,20,2013-01-20 23:53:00
6:53 PM,36.0,19.9,52,30.25,10.0,North,9.2,-,N/A,,Clear,10,2013-01-21 00:53:00
7:53 PM,33.1,18.0,54,30.28,10.0,North,9.2,-,N/A,,Clear,10,2013-01-21 01:53:00
8:53 PM,30.0,19.0,64,30.31,10.0,North,12.7,-,N/A,,Clear,10,2013-01-21 02:53:00
9:53 PM,28.0,15.1,58,30.34,10.0,North,10.4,-,N/A,,Clear,10,2013-01-21 03:53:00
10:53 PM,27.0,14.0,58,30.36,10.0,NNE,10.4,-,N/A,,Clear,20,2013-01-21 04:53:00
11:53 PM,26.1,12.9,58,30.35,10.0,North,5.8,-,N/A,,Clear,10,2013-01-21 05:53:00